Simultaneous Nadir Overpasses (SNOs) Predictions

Prediction of SNOs between AURA and NPP Satellite Orbit:

Table of predicted SNOs for the next 14.0 days since TLE Epoch: 11/9/2018
Index Date (AURA) Time (AURA) Lat,Lon (AURA) SZA (AURA ) Date (NPP) Time (NPP) Lat,Lon (NPP) SZA (NPP ) Distance(km) Time Diff (sec)
1 11/11/2018 19:08:19 79.55, 150.01 108.89 11/11/2018 19:08:08 79.55, 150.00 108.90 0.22 11
2 11/11/2018 19:57:40 -79.78, -40.65 71.43 11/11/2018 19:58:46 -79.78, -40.64 71.48 0.40 66
3 11/14/2018 10:35:29 -79.32, 96.70 70.11 11/14/2018 10:34:26 -79.31, 96.56 70.03 3.04 63
4 11/14/2018 11:24:46 79.65, -93.37 109.46 11/14/2018 11:25:00 79.66, -93.30 109.44 1.66 14
5 11/17/2018 02:51:55 -79.46,-146.48 69.61 11/17/2018 02:51:17 -79.46,-146.51 69.57 0.59 38
6 11/17/2018 03:41:15 79.67, 22.68 110.11 11/17/2018 03:41:55 79.67, 22.56 110.11 2.50 40
7 11/19/2018 19:08:20 -79.59, -29.67 69.14 11/19/2018 19:08:07 -79.60, -29.56 69.15 2.41 13
8 11/19/2018 19:57:40 79.80, 139.53 110.58 11/19/2018 19:58:45 79.80, 139.54 110.53 0.29 65
9 11/22/2018 10:35:28 79.37, -83.00 111.78 11/22/2018 10:34:24 79.36, -83.09 111.84 2.11 64




NCC Satellite Simultaneous Nadir Overpasses (SNOs) Prediction Service
